Year,Month,Day,Hour,Minute,Value (Times are PST for insolation in W/m^2)
2013,01,25,09,00,62.00
2013,01,25,09,01,62.50
2013,01,25,09,02,61.30
2013,01,25,09,03,61.20
2013,01,25,09,04,56.40
2013,01,25,09,05,53.20
2013,01,25,09,06,53.00
2013,01,25,09,07,59.50
2013,01,25,09,08,55.20
2013,01,25,09,09,51.60
2013,01,25,09,10,55.80
2013,01,25,09,11,62.80
2013,01,25,09,12,61.80
2013,01,25,09,13,59.30
2013,01,25,09,14,62.60
2013,01,25,09,15,58.10
2013,01,25,09,16,61.50
2013,01,25,09,17,74.10
2013,01,25,09,18,76.00
2013,01,25,09,19,63.70
2013,01,25,09,20,73.60
2013,01,25,09,21,85.90
2013,01,25,09,22,80.20
2013,01,25,09,23,79.00
2013,01,25,09,24,69.70
2013,01,25,09,25,59.40
2013,01,25,09,26,66.20
2013,01,25,09,27,69.00
2013,01,25,09,28,52.90
2013,01,25,09,29,56.30
2013,01,25,09,30,67.80
2013,01,25,09,31,73.50
2013,01,25,09,32,77.50
2013,01,25,09,33,72.20
2013,01,25,09,34,66.00
2013,01,25,09,35,67.90
2013,01,25,09,36,77.80
2013,01,25,09,37,82.40
2013,01,25,09,38,92.70
2013,01,25,09,39,76.00
2013,01,25,09,40,74.00
2013,01,25,09,41,74.70
2013,01,25,09,42,77.30
2013,01,25,09,43,69.10
2013,01,25,09,44,61.30
2013,01,25,09,45,55.70
2013,01,25,09,46,49.90
2013,01,25,09,47,47.70
2013,01,25,09,48,49.90
2013,01,25,09,49,51.00
2013,01,25,09,50,55.20
2013,01,25,09,51,49.10
2013,01,25,09,52,43.40
2013,01,25,09,53,40.50
2013,01,25,09,54,42.00
2013,01,25,09,55,41.20
2013,01,25,09,56,41.80
2013,01,25,09,57,45.70
2013,01,25,09,58,49.50
2013,01,25,09,59,51.00
2013,01,25,10,00,57.80
2013,01,25,10,01,58.30
2013,01,25,10,02,66.20
2013,01,25,10,03,59.70
2013,01,25,10,04,58.00
2013,01,25,10,05,58.00
2013,01,25,10,06,67.10
2013,01,25,10,07,84.90
2013,01,25,10,08,89.80
2013,01,25,10,09,93.00
2013,01,25,10,10,109.10
2013,01,25,10,11,142.40
2013,01,25,10,12,171.50
2013,01,25,10,13,145.40
2013,01,25,10,14,175.90
2013,01,25,10,15,153.40
2013,01,25,10,16,130.50
2013,01,25,10,17,116.50
2013,01,25,10,18,126.50
2013,01,25,10,19,139.00
2013,01,25,10,20,145.50
2013,01,25,10,21,149.00
2013,01,25,10,22,137.80
2013,01,25,10,23,126.10
2013,01,25,10,24,143.20
2013,01,25,10,25,147.70
2013,01,25,10,26,147.80
2013,01,25,10,27,151.70
2013,01,25,10,28,148.40
2013,01,25,10,29,152.40
2013,01,25,10,30,140.30
2013,01,25,10,31,150.90
2013,01,25,10,32,168.40
2013,01,25,10,33,182.40
2013,01,25,10,34,202.10
2013,01,25,10,35,247.80
2013,01,25,10,36,230.90
2013,01,25,10,37,216.40
2013,01,25,10,38,219.50
2013,01,25,10,39,193.80
2013,01,25,10,40,186.10
2013,01,25,10,41,172.40
2013,01,25,10,42,155.60
2013,01,25,10,43,156.70
2013,01,25,10,44,149.30
2013,01,25,10,45,150.50
2013,01,25,10,46,155.10
2013,01,25,10,47,139.40
2013,01,25,10,48,125.00
2013,01,25,10,49,121.70
2013,01,25,10,50,119.60
2013,01,25,10,51,124.40
2013,01,25,10,52,113.90
2013,01,25,10,53,109.00
2013,01,25,10,54,107.60
2013,01,25,10,55,99.00
2013,01,25,10,56,93.40
2013,01,25,10,57,101.80
2013,01,25,10,58,105.20
2013,01,25,10,59,94.60
2013,01,25,11,00,92.20
2013,01,25,11,01,87.60
2013,01,25,11,02,80.30
2013,01,25,11,03,75.30
2013,01,25,11,04,75.90
2013,01,25,11,05,81.20
2013,01,25,11,06,83.80
2013,01,25,11,07,97.60
2013,01,25,11,08,109.30
2013,01,25,11,09,99.70
2013,01,25,11,10,97.60
2013,01,25,11,11,100.00
2013,01,25,11,12,121.70
2013,01,25,11,13,202.50
2013,01,25,11,14,198.40
2013,01,25,11,15,156.60
2013,01,25,11,16,151.60
2013,01,25,11,17,165.40
2013,01,25,11,18,179.20
2013,01,25,11,19,240.90
2013,01,25,11,20,283.60
2013,01,25,11,21,508.00
2013,01,25,11,22,508.00
2013,01,25,11,23,444.00
2013,01,25,11,24,336.90
2013,01,25,11,25,379.10
2013,01,25,11,26,422.00
2013,01,25,11,27,445.60
2013,01,25,11,28,506.00
2013,01,25,11,29,513.50
2013,01,25,11,30,506.30
2013,01,25,11,31,494.00
2013,01,25,11,32,486.00
2013,01,25,11,33,432.00
2013,01,25,11,34,350.50
2013,01,25,11,35,329.00
2013,01,25,11,36,258.50
2013,01,25,11,37,165.10
2013,01,25,11,38,144.80
2013,01,25,11,39,141.20
2013,01,25,11,40,113.80
2013,01,25,11,41,118.70
2013,01,25,11,42,102.70
2013,01,25,11,43,99.40
2013,01,25,11,44,120.00
2013,01,25,11,45,124.40
2013,01,25,11,46,118.50
2013,01,25,11,47,128.70
2013,01,25,11,48,125.90
2013,01,25,11,49,116.10
2013,01,25,11,50,106.90
2013,01,25,11,51,102.40
2013,01,25,11,52,101.90
2013,01,25,11,53,101.40
2013,01,25,11,54,113.20
2013,01,25,11,55,111.90
2013,01,25,11,56,115.40
2013,01,25,11,57,128.00
2013,01,25,11,58,162.10
2013,01,25,11,59,187.40
2013,01,25,12,00,188.80
2013,01,25,12,01,193.90
2013,01,25,12,02,224.10
2013,01,25,12,03,262.60
2013,01,25,12,04,265.50
2013,01,25,12,05,322.90
2013,01,25,12,06,274.60
2013,01,25,12,07,264.50
2013,01,25,12,08,235.80
2013,01,25,12,09,214.40
2013,01,25,12,10,213.10
2013,01,25,12,11,231.30
2013,01,25,12,12,236.00
2013,01,25,12,13,236.00
2013,01,25,12,14,320.60
2013,01,25,12,15,338.90
2013,01,25,12,16,406.00
2013,01,25,12,17,430.00
2013,01,25,12,18,458.30
2013,01,25,12,19,404.00
2013,01,25,12,20,499.70
2013,01,25,12,21,578.00
2013,01,25,12,22,452.70
2013,01,25,12,23,399.00
2013,01,25,12,24,517.20
2013,01,25,12,25,534.20
2013,01,25,12,26,494.20
2013,01,25,12,27,464.20
2013,01,25,12,28,439.00
2013,01,25,12,29,431.70
2013,01,25,12,30,440.00
2013,01,25,12,31,431.50
2013,01,25,12,32,439.20
2013,01,25,12,33,452.30
2013,01,25,12,34,452.60
2013,01,25,12,35,448.60
2013,01,25,12,36,439.50
2013,01,25,12,37,435.60
2013,01,25,12,38,429.00
2013,01,25,12,39,420.00
2013,01,25,12,40,427.60
2013,01,25,12,41,422.60
2013,01,25,12,42,422.50
2013,01,25,12,43,420.80
2013,01,25,12,44,411.50
2013,01,25,12,45,411.80
2013,01,25,12,46,404.10
2013,01,25,12,47,399.90
2013,01,25,12,48,410.00
2013,01,25,12,49,420.60
2013,01,25,12,50,415.00
2013,01,25,12,51,415.00
2013,01,25,12,52,410.00
2013,01,25,12,53,404.00
2013,01,25,12,54,290.00
2013,01,25,12,55,206.10
2013,01,25,12,56,195.00
2013,01,25,12,57,213.70
2013,01,25,12,58,227.40
2013,01,25,12,59,466.00
2013,01,25,13,00,415.70
2013,01,25,13,01,227.00
2013,01,25,13,02,227.00
2013,01,25,13,03,173.00
2013,01,25,13,04,102.10
2013,01,25,13,05,98.00
2013,01,25,13,06,90.00
2013,01,25,13,07,94.40
2013,01,25,13,08,91.60
2013,01,25,13,09,87.80
2013,01,25,13,10,77.00
2013,01,25,13,11,77.00
2013,01,25,13,12,77.00
2013,01,25,13,13,112.00
2013,01,25,13,14,193.20
2013,01,25,13,15,240.90
2013,01,25,13,16,296.40
2013,01,25,13,17,322.00
2013,01,25,13,18,534.60
2013,01,25,13,19,601.00
2013,01,25,13,20,449.10
2013,01,25,13,21,363.30
2013,01,25,13,22,345.50
2013,01,25,13,23,373.00
2013,01,25,13,24,447.20
2013,01,25,13,25,585.00
2013,01,25,13,26,585.00
2013,01,25,13,27,585.00
2013,01,25,13,28,585.00
2013,01,25,13,29,584.20
2013,01,25,13,30,580.40
2013,01,25,13,31,598.00
2013,01,25,13,32,596.90
2013,01,25,13,33,569.20
2013,01,25,13,34,532.00
2013,01,25,13,35,516.60
2013,01,25,13,36,496.00
2013,01,25,13,37,490.00
2013,01,25,13,38,302.80
2013,01,25,13,39,186.00
2013,01,25,13,40,214.00
2013,01,25,13,41,232.60
2013,01,25,13,42,227.60
2013,01,25,13,43,234.10
2013,01,25,13,44,237.60
2013,01,25,13,45,206.00
2013,01,25,13,46,206.00
2013,01,25,13,47,240.10
2013,01,25,13,48,262.30
2013,01,25,13,49,254.30
2013,01,25,13,50,258.00
2013,01,25,13,51,258.00
2013,01,25,13,52,247.80
2013,01,25,13,53,244.10
2013,01,25,13,54,254.60
2013,01,25,13,55,249.00
2013,01,25,13,56,234.80
2013,01,25,13,57,215.30
2013,01,25,13,58,214.00
2013,01,25,13,59,214.00
2013,01,25,14,00,227.80
2013,01,25,14,01,207.60
2013,01,25,14,02,219.00
2013,01,25,14,03,227.00
2013,01,25,14,04,226.40
2013,01,25,14,05,214.00
2013,01,25,14,06,250.60
2013,01,25,14,07,404.00
2013,01,25,14,08,428.90
2013,01,25,14,09,402.70
2013,01,25,14,10,403.80
2013,01,25,14,11,409.20
2013,01,25,14,12,364.10
2013,01,25,14,13,316.20
2013,01,25,14,14,369.50
2013,01,25,14,15,387.20
2013,01,25,14,16,397.00
2013,01,25,14,17,397.00
2013,01,25,14,18,397.00
2013,01,25,14,19,307.90
2013,01,25,14,20,163.00
2013,01,25,14,21,163.00
2013,01,25,14,22,192.70
2013,01,25,14,23,193.80
2013,01,25,14,24,188.00
2013,01,25,14,25,372.00
2013,01,25,14,26,387.40
2013,01,25,14,27,102.30
2013,01,25,14,28,102.50
2013,01,25,14,29,91.00
2013,01,25,14,30,91.00
2013,01,25,14,31,87.20
2013,01,25,14,32,95.00
2013,01,25,14,33,94.50
2013,01,25,14,34,88.00
2013,01,25,14,35,88.00
2013,01,25,14,36,88.00
2013,01,25,14,37,185.60
2013,01,25,14,38,272.00
2013,01,25,14,39,272.00
2013,01,25,14,40,272.00
2013,01,25,14,41,272.00
2013,01,25,14,42,272.00
2013,01,25,14,43,272.00
2013,01,25,14,44,262.50
2013,01,25,14,45,260.30
2013,01,25,14,46,208.40
2013,01,25,14,47,153.60
2013,01,25,14,48,220.40
2013,01,25,14,49,234.70
2013,01,25,14,50,172.20
2013,01,25,14,51,238.00
2013,01,25,14,52,222.40
2013,01,25,14,53,161.90
2013,01,25,14,54,135.80
2013,01,25,14,55,148.60
2013,01,25,14,56,104.00
2013,01,25,14,57,83.00
2013,01,25,14,58,222.70
2013,01,25,14,59,248.00
2013,01,25,15,00,250.80
2013,01,25,15,01,253.20
2013,01,25,15,02,227.50
2013,01,25,15,03,149.20
2013,01,25,15,04,107.00
2013,01,25,15,05,107.00
2013,01,25,15,06,107.00
2013,01,25,15,07,108.40
2013,01,25,15,08,102.20
2013,01,25,15,09,101.70
2013,01,25,15,10,98.20
2013,01,25,15,11,172.20
2013,01,25,15,12,93.00
2013,01,25,15,13,97.80
2013,01,25,15,14,112.80
2013,01,25,15,15,121.30
2013,01,25,15,16,123.00
2013,01,25,15,17,123.00
2013,01,25,15,18,151.00
2013,01,25,15,19,118.80
2013,01,25,15,20,118.40
2013,01,25,15,21,178.00
2013,01,25,15,22,185.20
2013,01,25,15,23,145.50
2013,01,25,15,24,84.60
2013,01,25,15,25,82.50
2013,01,25,15,26,72.80
2013,01,25,15,27,67.00
2013,01,25,15,28,60.80
2013,01,25,15,29,55.30
2013,01,25,15,30,54.00
2013,01,25,15,31,55.70
2013,01,25,15,32,61.70
2013,01,25,15,33,62.70
2013,01,25,15,34,82.20
2013,01,25,15,35,114.60
2013,01,25,15,36,64.60
2013,01,25,15,37,90.20
2013,01,25,15,38,120.50
2013,01,25,15,39,111.00
2013,01,25,15,40,74.70
2013,01,25,15,41,63.80
2013,01,25,15,42,87.10
2013,01,25,15,43,110.00
2013,01,25,15,44,123.60
2013,01,25,15,45,112.80
2013,01,25,15,46,119.50
2013,01,25,15,47,118.00
2013,01,25,15,48,118.80
2013,01,25,15,49,120.00
2013,01,25,15,50,117.70
2013,01,25,15,51,116.00
2013,01,25,15,52,110.70
2013,01,25,15,53,104.50
2013,01,25,15,54,102.10
2013,01,25,15,55,76.90
2013,01,25,15,56,76.00
2013,01,25,15,57,74.20
2013,01,25,15,58,63.10
2013,01,25,15,59,50.10
2013,01,25,16,00,54.00
2013,01,25,16,01,72.20
2013,01,25,16,02,81.00
2013,01,25,16,03,81.00
2013,01,25,16,04,79.30
2013,01,25,16,05,79.00
2013,01,25,16,06,76.30
2013,01,25,16,07,70.80
2013,01,25,16,08,73.50
2013,01,25,16,09,69.30
2013,01,25,16,10,62.60
2013,01,25,16,11,53.00
2013,01,25,16,12,44.80
2013,01,25,16,13,45.40
2013,01,25,16,14,46.80
2013,01,25,16,15,50.40
2013,01,25,16,16,51.00
2013,01,25,16,17,49.00
2013,01,25,16,18,49.40
2013,01,25,16,19,51.00
2013,01,25,16,20,50.30
2013,01,25,16,21,48.10
2013,01,25,16,22,47.00
2013,01,25,16,23,46.40
2013,01,25,16,24,44.60
2013,01,25,16,25,42.50
2013,01,25,16,26,40.30
2013,01,25,16,27,39.00
2013,01,25,16,28,36.80
2013,01,25,16,29,34.60
2013,01,25,16,30,33.00
2013,01,25,16,31,33.00
2013,01,25,16,32,32.50
2013,01,25,16,33,32.00
2013,01,25,16,34,32.00
2013,01,25,16,35,30.60
2013,01,25,16,36,30.00
2013,01,25,16,37,28.30
2013,01,25,16,38,28.00
2013,01,25,16,39,28.00
2013,01,25,16,40,27.60
2013,01,25,16,41,26.00
2013,01,25,16,42,25.60
2013,01,25,16,43,23.20
2013,01,25,16,44,19.50
2013,01,25,16,45,15.60
2013,01,25,16,46,11.90
2013,01,25,16,47,9.50
2013,01,25,16,48,9.00
2013,01,25,16,49,7.10
2013,01,25,16,50,7.00
2013,01,25,16,51,7.00
2013,01,25,16,52,7.00
2013,01,25,16,53,6.30
2013,01,25,16,54,5.00
2013,01,25,16,55,5.00
2013,01,25,16,56,5.00
2013,01,25,16,57,5.00
2013,01,25,16,58,5.00
2013,01,25,16,59,5.00
2013,01,25,17,00,0.30
2013,01,25,17,01,0.00
2013,01,25,17,02,0.00
2013,01,25,17,03,0.00
2013,01,25,17,04,0.00
2013,01,25,17,05,0.00
2013,01,25,17,06,0.00
2013,01,25,17,07,0.00
2013,01,25,17,08,0.00
2013,01,25,17,09,0.00
2013,01,25,17,10,0.00
2013,01,25,17,11,0.00
2013,01,25,17,12,0.00
2013,01,25,17,13,0.00
2013,01,25,17,14,0.00
2013,01,25,17,15,0.00
2013,01,25,17,16,0.00
2013,01,25,17,17,0.00
2013,01,25,17,18,0.00
2013,01,25,17,19,0.00
2013,01,25,17,20,0.00
2013,01,25,17,21,0.00
2013,01,25,17,22,0.00
2013,01,25,17,23,0.00
2013,01,25,17,24,0.00
2013,01,25,17,25,0.00
2013,01,25,17,26,0.00
2013,01,25,17,27,0.00
2013,01,25,17,28,0.00
2013,01,25,17,29,0.00
2013,01,25,17,30,0.00
2013,01,25,17,31,0.00
2013,01,25,17,32,0.00
2013,01,25,17,33,0.00
2013,01,25,17,34,0.00
2013,01,25,17,35,0.00
2013,01,25,17,36,0.00
2013,01,25,17,37,0.00
2013,01,25,17,38,0.00
2013,01,25,17,39,0.00
2013,01,25,17,40,0.00
2013,01,25,17,41,0.00
2013,01,25,17,42,0.00
2013,01,25,17,43,0.00
2013,01,25,17,44,0.00
2013,01,25,17,45,0.00
2013,01,25,17,46,0.00
